Kyzyl-Tuu

Kyrgyzstan     42˚11′04″N   76˚40′26″E
temp.,
°C
wind,
m/s
gust,
m/s
humid.,
%
clouds,
%
prec.,
mm/h
press.,
hPa
HPBL,
m
1 december, tue
tue100:00−3˚w234654 0.0 1038218
03:00−3˚wsw334999 0.0 1035239
06:00−3˚sw3345100 0.0 1035176
09:00−3˚wsw2242100 0.0 1034176
12:00wnw223899 0.0 1031384
15:00+1˚nw213992 0.0 1029376
18:00wnw114396 0.0 1031242
21:00−1˚w114533 0.0 1033201
2 december, wed
wed200:00−1˚w215022 0.0 1033172
03:00−1˚w225291 0.0 1033168
06:00−1˚w224995 0.0 1033174
09:00−1˚wsw224984 0.0 1033167
12:00+1˚w214589 0.0 1030209
15:00+2˚nw114698 0.0 1028397
18:00e116099 0.0 1029369
21:00s1173100 0.0 1030428
3 december, thu
thu300:00wsw2271100 0.0 1030174
03:00−1˚w3373100 0.0 1029184
06:00−1˚wsw2272100 0.0 1029173
09:00wsw236899 0.0 1029161
12:00+2˚sw116193 0.0 1027223
15:00+3˚ne115977 0.0 1025316
18:00+1˚e227764 0.1 1027267
21:00+1˚se1279100 0.1 1027376
4 december, fri
fri400:00+1˚ssw2285100 0.4 1026162
03:00wsw2389100 0.1 1024190
06:00+1˚w2280100 0.3 1022181
09:00+1˚w2286100 0.1 1022200
12:00+2˚wnw2376100 0.2 1020322
15:00+3˚w1169100 0.1 1020375
18:00+1˚sw1175100 0.1 1023199
21:00+2˚wnw3368100 0.0 1026289
5 december, sat
sat500:00w3465100 0.0 1026201
03:00−1˚w335748 0.0 1027215
06:00−1˚w235524 0.0 1028216
09:00−1˚w22492 0.0 1028194
12:00+1˚nw33501 0.0 1025333
15:00+2˚nnw12610 0.0 1023583
18:00+1˚se22700 0.0 1026532
21:00sw346510 0.1 1027167